Regional Weather Roundup
Issued by NWS

Home | Current Version | Previous Version | Graphics & Text | Print | Product List | Glossary On
Versions: 1 2 3 4 5 6 7 8 9 10 11 12 13 14 15 16 17 18 19 20 21 22 23 24 25 26 27 28 29 30 31 32 33 34 35 36 37 38 39 40 41 42 43 44 45 46 47 48 49 50
069
ASUS43 KLMK 070410
RWRKY
KENTUCKY REGIONAL WEATHER ROUNDUP
NATIONAL WEATHER SERVICE LOUISVILLE KY
1100 PM EST SAT FEB 06 2016

NOTE "FAIR" INDICATES FEW OR NO CLOUDS BELOW 12,000 FEET
WITH NO SIGNIFICANT WEATHER AND/OR OBSTRUCTIONS TO VISIBILITY.

KYZ001>023-026-027-061>063-070>075-070500-
WESTERN AND SOUTH CENTRAL KENTUCKY

CITY           SKY/WX    TMP DP  RH WIND       PRES   REMARKS
PADUCAH        CLEAR     42  21  43 SW7       30.26F
HENDERSON      CLEAR     34  21  60 SW8       30.24F WCI  27
OWENSBORO      CLEAR     35  28  76 CALM      30.26F
HOPKINSVILLE   CLEAR     38  21  49 SW3       30.27F
BOWLING GREEN  PTCLDY    34  24  67 CALM      30.28F
GLASGOW        CLEAR     32  25  74 CALM      30.27F
$$

KYZ024-025-028>034-038-045-046-053-070500-
NORTH CENTRAL KENTUCKY

CITY           SKY/WX    TMP DP  RH WIND       PRES   REMARKS
LOUISVILLE/SDF PTCLDY    37  25  61 SE3       30.24F
LOUISVILLE/LOU PTCLDY    36  27  69 CALM      30.25F
FORT KNOX      CLEAR     35  23  61 SW2       30.23F
$$

KYZ035>037-039>044-047>052-055>060-089>105-070500-
NORTHEAST KENTUCKY

CITY           SKY/WX    TMP DP  RH WIND       PRES   REMARKS
LEXINGTON      CLEAR     32  23  69 S7        30.24F WCI  26
COVINGTON      CLEAR     33  23  66 S6        30.22F WCI  28
FRANKFORT      CLEAR     28  22  78 CALM      30.24S
$$

KYZ054-064>069-076>088-106>120-070500-
SOUTHEAST KENTUCKY

CITY           SKY/WX    TMP DP  RH WIND       PRES   REMARKS
JACKSON        CLEAR     38  20  48 SW3       30.24F
LONDON         CLEAR     31  24  75 CALM      30.26S
SOMERSET       CLEAR     32  25  74 CALM      30.29R
MIDDLESBORO    PTCLDY    32  27  80 CALM      30.28S
MONTICELLO     CLEAR     25  22  88 CALM      30.29S
$$





USA.gov is the U.S. government's official web portal to all federal, state and local government web resources and services.